Weather History for KPGA - August, 2013

Change the Weather History Date:

Wednesday, August 14, 2013

  Actual Average Record
Temperature  
Mean Temperature 84 °F -  
Max Temperature 98 °F 91 °F - (-1)
Min Temperature 70 °F 67 °F - (-1)
Cooling Degree Days 19    
Growing Degree Days 34 (Base 50)    
Moisture  
Dew Point 33 °F    
Average Humidity 15    
Maximum Humidity 24    
Minimum Humidity 4    
Precipitation  
Precipitation 0.00 in - - ()
Sea Level Pressure  
Sea Level Pressure 29.86 in    
Wind  
Wind Speed 4 mph (ESE)    
Max Wind Speed 12 mph    
Max Gust Speed -    
Visibility 10 miles    
Events      
Averages and records for this station are not official NWS values.
T = Trace of Precipitation, MM = Missing Value Source: NWS Daily Summary

Daily Weather History Graph

Daily Weather History Graph

Search for Another Location

Airport or City:

Trip Planner

Search our weather history database for the weather conditions in past years. The results will help you decide how hot, cold, wet, or windy it might be!

Date:

Astronomy

Aug. 14, 2013 Rise Set
Actual Time 5:42 AM MST 7:17 PM MST
Civil Twilight 5:14 AM MST 7:45 PM MST
Nautical Twilight 4:41 AM MST 8:18 PM MST
Astronomical Twilight 4:06 AM MST 8:53 PM MST
Moon 1:32 PM MST (8/14) 11:57 PM MST (8/14)
Length of Visible Light 14h 31m
Length of Day
13h 35m
First Quarter, 54% of the Moon is Illuminated
Aug 14
First Quarter
Aug 20
Full
Aug 28
Last Quarter
Sep 5
New
Sep 12
First Quarter

Hourly Weather History & Observations

Time (MST) Temp. Dew Point Humidity Pressure Visibility Wind Dir Wind Speed Gust Speed Precip Events Conditions
12:53 AM 81.0 °F 34.0 °F 18% 29.86 in 10.0 mi Calm Calm - N/A   Clear
1:53 AM 78.1 °F 33.1 °F 19% 29.86 in 10.0 mi SW 4.6 mph - N/A   Clear
2:53 AM 73.9 °F 34.0 °F 23% 29.88 in 10.0 mi SSE 5.8 mph - N/A   Clear
3:53 AM 73.0 °F 34.0 °F 24% 29.88 in 10.0 mi Calm Calm - N/A   Clear
4:53 AM 75.9 °F 30.9 °F 19% 29.88 in 10.0 mi NW 3.5 mph - N/A   Clear
5:53 AM 71.1 °F 32.0 °F 24% 29.90 in 10.0 mi SE 4.6 mph - N/A   Clear
6:53 AM 75.0 °F 35.1 °F 23% 29.93 in 10.0 mi Calm Calm - N/A   Clear
7:53 AM 79.0 °F 28.9 °F 16% 29.93 in 10.0 mi Calm Calm - N/A   Clear
8:53 AM 82.0 °F 27.0 °F 13% 29.94 in 10.0 mi West 3.5 mph - N/A   Clear
9:53 AM 84.9 °F 27.0 °F 12% 29.94 in 10.0 mi Calm Calm - N/A   Clear
10:53 AM 89.1 °F 24.1 °F 9% 29.93 in 10.0 mi Variable 5.8 mph - N/A   Clear
11:53 AM 91.9 °F 24.1 °F 9% 29.90 in 10.0 mi North 6.9 mph - N/A   Clear
12:53 PM 95.0 °F 30.0 °F 10% 29.86 in 10.0 mi NNE 8.1 mph - N/A   Clear
1:53 PM 97.0 °F 33.1 °F 11% 29.84 in 9.0 mi North 8.1 mph - N/A   Clear
2:53 PM 97.0 °F 35.1 °F 11% 29.83 in 10.0 mi NNE 9.2 mph - N/A   Clear
3:53 PM 96.1 °F 36.0 °F 12% 29.82 in 10.0 mi NE 9.2 mph - N/A   Clear
4:53 PM 93.9 °F 36.0 °F 13% 29.80 in 10.0 mi East 6.9 mph - N/A   Scattered Clouds
5:53 PM 93.0 °F 37.0 °F 14% 29.79 in 10.0 mi ESE 3.5 mph - N/A   Clear
6:53 PM 91.0 °F 39.0 °F 16% 29.79 in 10.0 mi ESE 3.5 mph - N/A   Clear
7:53 PM 88.0 °F 37.9 °F 17% 29.80 in 10.0 mi SSE 11.5 mph - N/A   Clear
8:53 PM 84.0 °F 39.9 °F 21% 29.83 in 10.0 mi SE 4.6 mph - N/A   Clear
9:53 PM 84.9 °F 39.9 °F 20% 29.83 in 10.0 mi SSW 8.1 mph - N/A   Clear
10:53 PM 84.0 °F 33.1 °F 16% 29.84 in 10.0 mi SW 5.8 mph - N/A   Clear
11:53 PM 82.0 °F 28.0 °F 14% 29.85 in 10.0 mi Calm Calm - N/A   Clear